FLOCK 4BE-2

Last updated on Mon Sep 16 2024 00:02:03 GMT+0000 (Coordinated Universal Time)

1 60511U 24149AV 24259.15078240 .00016879 00000+0 80041-3 0 9998 2 60511 97.4450 334.2987 0005023 55.0674 305.1031 15.19346250 4459
UTC large
Height (km)
Speed (km/s)
/
Latitude / Longitude
Inclination (degrees)
Orbital Period (minutes)
Azimuth
Elevation
Range (km)
Doppler Factor

Next 0 passes for location: London (51.5072 / 0.1276)

Sorry there are no passes over London.